| time (UTC) | temp F | wind direction | speed MPH | gust MPH | rain 1hr in | rain 24hr in | rain mn in | humidity % | barometer mb |
| 20260507163504 | 65 | 239 | 1.0 | 5.0 | 0.00 | 0.52 | 0.42 | 57 | 1007.2 |
| 20260507163003 | 63 | 252 | 0.0 | 4.0 | 0.00 | 0.52 | 0.42 | 61 | 1007.3 |
| 20260507161459 | 62 | 205 | 1.0 | 4.0 | 0.00 | 0.52 | 0.42 | 65 | 1007.3 |
| 20260507160458 | 62 | 214 | 1.0 | 5.0 | 0.00 | 0.52 | 0.42 | 65 | 1007.6 |
| 20260507155458 | 61 | 335 | 1.0 | 5.0 | 0.00 | 0.52 | 0.42 | 68 | 1007.8 |
| 20260507155000 | 60 | 315 | 0.0 | 2.0 | 0.00 | 0.52 | 0.42 | 69 | 1007.8 |
| 20260507154003 | 60 | 69 | 0.0 | 4.0 | 0.00 | 0.52 | 0.42 | 70 | 1008.0 |
| 20260507152459 | 59 | 309 | 1.0 | 6.0 | 0.00 | 0.52 | 0.42 | 71 | 1008.1 |
| 20260507151459 | 59 | 229 | 2.0 | 7.0 | 0.00 | 0.52 | 0.42 | 74 | 1008.1 |
| 20260507150459 | 58 | 250 | 1.0 | 5.0 | 0.00 | 0.52 | 0.42 | 72 | 1008.2 |
| 20260507145459 | 57 | 302 | 1.0 | 5.0 | 0.00 | 0.52 | 0.42 | 78 | 1008.3 |
| 20260507145453 | 58 | 296 | 1.0 | 5.0 | 0.00 | 0.52 | 0.42 | 74 | 1008.0 |
| 20260507143454 | 56 | 232 | 0.0 | 3.0 | 0.00 | 0.52 | 0.42 | 79 | 1008.1 |
| 20260507142451 | 55 | 63 | 1.0 | 4.0 | 0.00 | 0.52 | 0.42 | 81 | 1008.3 |
| 20260507141453 | 55 | 276 | 1.0 | 4.0 | 0.00 | 0.52 | 0.42 | 81 | 1008.5 |
| 20260507140454 | 54 | 262 | 1.0 | 4.0 | 0.00 | 0.52 | 0.42 | 79 | 1008.5 |
| 20260507135452 | 53 | 268 | 0.0 | 3.0 | 0.00 | 0.52 | 0.42 | 75 | 1008.6 |
| 20260507134454 | 52 | 290 | 0.0 | 3.0 | 0.00 | 0.52 | 0.42 | 73 | 1008.3 |
| 20260507133454 | 51 | 163 | 0.0 | 2.0 | 0.00 | 0.52 | 0.42 | 73 | 1008.5 |
| 20260507132447 | 51 | 272 | 0.0 | 1.0 | 0.01 | 0.52 | 0.42 | 74 | 1008.7 |
| 20260507131947 | 50 | 293 | 0.0 | 2.0 | 0.01 | 0.52 | 0.42 | 73 | 1008.4 |
| 20260507130446 | 50 | 321 | 0.0 | 1.0 | 0.02 | 0.52 | 0.42 | 73 | 1008.6 |
| 20260507125945 | 49 | 304 | 0.0 | 1.0 | 0.03 | 0.52 | 0.42 | 72 | 1008.4 |
| 20260507124945 | 49 | 253 | 0.0 | 2.0 | 0.03 | 0.52 | 0.42 | 71 | 1008.6 |
| 20260507123444 | 49 | 6 | 0.0 | 1.0 | 0.03 | 0.52 | 0.42 | 69 | 1008.5 |
| 20260507122446 | 49 | 110 | 0.0 | 1.0 | 0.03 | 0.51 | 0.41 | 70 | 1008.8 |
| 20260507121948 | 49 | 291 | 0.0 | 1.0 | 0.04 | 0.51 | 0.41 | 69 | 1008.7 |
| 20260507120445 | 48 | 308 | 0.0 | 1.0 | 0.03 | 0.50 | 0.40 | 69 | 1008.4 |
| 20260507115442 | 48 | 302 | 0.0 | 1.0 | 0.03 | 0.49 | 0.39 | 70 | 1008.7 |
| 20260507114438 | 48 | 304 | 0.0 | 1.0 | 0.03 | 0.49 | 0.39 | 70 | 1008.5 |
| 20260507113439 | 48 | 291 | 0.0 | 2.0 | 0.04 | 0.49 | 0.39 | 71 | 1008.6 |
| 20260507112438 | 48 | 256 | 0.0 | 1.0 | 0.03 | 0.48 | 0.38 | 70 | 1008.6 |
| 20260507111438 | 48 | 295 | 1.0 | 5.0 | 0.03 | 0.47 | 0.37 | 70 | 1008.9 |
| 20260507110439 | 49 | 285 | 0.0 | 3.0 | 0.04 | 0.47 | 0.37 | 70 | 1007.8 |
| 20260507105940 | 49 | 316 | 0.0 | 3.0 | 0.04 | 0.46 | 0.37 | 70 | 1007.7 |
| 20260507104439 | 49 | 309 | 0.0 | 2.0 | 0.04 | 0.46 | 0.36 | 69 | 1007.8 |
| 20260507103438 | 50 | 56 | 1.0 | 4.0 | 0.04 | 0.45 | 0.35 | 69 | 1007.9 |
| 20260507102432 | 50 | 278 | 0.0 | 4.0 | 0.05 | 0.45 | 0.35 | 67 | 1007.7 |
| 20260507101433 | 50 | 276 | 0.0 | 3.0 | 0.06 | 0.44 | 0.34 | 67 | 1007.9 |
| 20260507100432 | 51 | 308 | 0.0 | 2.0 | 0.06 | 0.43 | 0.33 | 67 | 1007.2 |
| 20260507095432 | 51 | 319 | 1.0 | 4.0 | 0.06 | 0.42 | 0.32 | 67 | 1007.4 |
| 20260507094934 | 51 | 50 | 0.0 | 3.0 | 0.08 | 0.42 | 0.32 | 66 | 1007.4 |
| 20260507093433 | 52 | 284 | 0.0 | 3.0 | 0.08 | 0.41 | 0.31 | 66 | 1007.1 |
| 20260507092933 | 52 | 52 | 0.0 | 2.0 | 0.11 | 0.40 | 0.30 | 65 | 1007.2 |
| 20260507091433 | 53 | 322 | 1.0 | 4.0 | 0.17 | 0.38 | 0.28 | 65 | 1007.1 |
| 20260507090435 | 53 | 342 | 0.0 | 1.0 | 0.26 | 0.37 | 0.27 | 65 | 1007.1 |
| 20260507085429 | 54 | 275 | 0.0 | 4.0 | 0.26 | 0.36 | 0.26 | 65 | 1007.4 |
| 20260507084428 | 54 | 290 | 0.0 | 2.0 | 0.24 | 0.34 | 0.24 | 64 | 1006.8 |
| 20260507083430 | 55 | 210 | 0.0 | 3.0 | 0.19 | 0.29 | 0.19 | 64 | 1007.1 |
| 20260507083426 | 55 | 297 | 0.0 | 1.0 | 0.22 | 0.32 | 0.23 | 64 | 1006.9 |
| 20260507081427 | 55 | 255 | 0.0 | 2.0 | 0.11 | 0.21 | 0.12 | 64 | 1007.4 |
| 20260507080427 | 54 | 197 | 0.0 | 1.0 | 0.01 | 0.11 | 0.01 | 64 | 1006.6 |
| 20260507075427 | 55 | 221 | 0.0 | 0.0 | 0.00 | 0.10 | 0.00 | 64 | 1006.2 |
| 20260507074427 | 55 | 221 | 0.0 | 0.0 | 0.00 | 0.10 | 0.00 | 64 | 1006.2 |
| 20260507073426 | 55 | 221 | 0.0 | 0.0 | 0.00 | 0.10 | 0.00 | 64 | 1006.1 |
| 20260507072922 | 55 | 221 | 0.0 | 0.0 | 0.00 | 0.10 | 0.00 | 64 | 1006.2 |
| 20260507071420 | 55 | 221 | 0.0 | 0.0 | 0.00 | 0.10 | 0.00 | 64 | 1006.2 |
| 20260507070420 | 55 | 221 | 0.0 | 0.0 | 0.00 | 0.10 | 0.00 | 64 | 1006.2 |
| 20260507065420 | 55 | 221 | 0.0 | 0.0 | 0.00 | 0.10 | 0.00 | 64 | 1006.4 |
| 20260507064420 | 55 | 221 | 0.0 | 1.0 | 0.00 | 0.10 | 0.00 | 64 | 1006.3 |
| 20260507063922 | 55 | 221 | 0.0 | 1.0 | 0.00 | 0.10 | 0.00 | 65 | 1006.3 |
| 20260507062420 | 55 | 221 | 0.0 | 1.0 | 0.00 | 0.10 | 0.00 | 65 | 1006.3 |
| 20260507061422 | 55 | 221 | 0.0 | 1.0 | 0.00 | 0.10 | 0.00 | 65 | 1006.8 |
| 20260507060421 | 55 | 221 | 0.0 | 1.0 | 0.00 | 0.10 | 0.00 | 65 | 1006.6 |
| 20260507055416 | 54 | 255 | 0.0 | 1.0 | 0.00 | 0.10 | 0.00 | 65 | 1006.8 |
| 20260507054916 | 54 | 123 | 0.0 | 1.0 | 0.00 | 0.10 | 0.00 | 65 | 1006.7 |
| 20260507053414 | 55 | 170 | 0.0 | 1.0 | 0.00 | 0.10 | 0.00 | 65 | 1007.1 |
| 20260507052414 | 55 | 130 | 0.0 | 1.0 | 0.00 | 0.10 | 0.00 | 65 | 1007.3 |
| 20260507051415 | 55 | 268 | 0.0 | 1.0 | 0.00 | 0.10 | 0.00 | 65 | 1007.3 |
| 20260507050415 | 55 | 197 | 0.0 | 1.0 | 0.00 | 0.10 | 0.00 | 65 | 1007.3 |
| 20260507045418 | 55 | 203 | 0.0 | 1.0 | 0.00 | 0.10 | 0.00 | 65 | 1007.5 |
| 20260507044414 | 55 | 203 | 0.0 | 1.0 | 0.00 | 0.10 | 0.00 | 65 | 1007.4 |
| 20260507043415 | 55 | 203 | 0.0 | 1.0 | 0.00 | 0.10 | 0.00 | 65 | 1007.3 |
| 20260507042911 | 55 | 200 | 0.0 | 1.0 | 0.00 | 0.10 | 0.00 | 65 | 1007.5 |
| 20260507041408 | 55 | 203 | 0.0 | 1.0 | 0.00 | 0.10 | 0.00 | 65 | 1007.5 |
| 20260507040409 | 55 | 204 | 0.0 | 1.0 | 0.00 | 0.10 | 0.00 | 65 | 1007.5 |
| 20260507035407 | 55 | 215 | 0.0 | 1.0 | 0.00 | 0.10 | 0.10 | 65 | 1007.5 |
| 20260507034406 | 55 | 205 | 0.0 | 1.0 | 0.00 | 0.10 | 0.10 | 66 | 1007.5 |
| 20260507033408 | 55 | 210 | 0.0 | 3.0 | 0.00 | 0.10 | 0.10 | 66 | 1007.9 |
| 20260507032909 | 55 | 200 | 1.0 | 4.0 | 0.00 | 0.10 | 0.10 | 66 | 1007.7 |
| 20260507031406 | 55 | 201 | 1.0 | 4.0 | 0.00 | 0.10 | 0.10 | 66 | 1007.7 |
| 20260507030412 | 55 | 97 | 1.0 | 2.0 | 0.00 | 0.10 | 0.10 | 66 | 1007.3 |
| 20260507030406 | 55 | 229 | 1.0 | 4.0 | 0.00 | 0.10 | 0.10 | 66 | 1007.4 |
| 20260507024402 | 55 | 248 | 1.0 | 4.0 | 0.00 | 0.10 | 0.10 | 66 | 1007.4 |
| 20260507023401 | 55 | 208 | 1.0 | 2.0 | 0.00 | 0.10 | 0.10 | 66 | 1007.4 |
| 20260507022400 | 55 | 167 | 0.0 | 2.0 | 0.00 | 0.10 | 0.10 | 66 | 1007.7 |
| 20260507021400 | 56 | 206 | 1.0 | 4.0 | 0.00 | 0.10 | 0.10 | 66 | 1007.9 |
| 20260507020402 | 56 | 208 | 1.0 | 3.0 | 0.01 | 0.10 | 0.10 | 66 | 1008.0 |
| 20260507015401 | 56 | 180 | 1.0 | 3.0 | 0.01 | 0.10 | 0.10 | 66 | 1008.1 |
| 20260507014906 | 56 | 167 | 1.0 | 4.0 | 0.01 | 0.10 | 0.10 | 66 | 1008.1 |
| 20260507013404 | 56 | 198 | 1.0 | 5.0 | 0.01 | 0.10 | 0.10 | 66 | 1008.3 |
| 20260507012359 | 56 | 203 | 2.0 | 6.0 | 0.01 | 0.10 | 0.10 | 66 | 1008.5 |
| 20260507011407 | 56 | 174 | 2.0 | 7.0 | 0.01 | 0.10 | 0.10 | 66 | 1008.5 |
| 20260507010353 | 56 | 222 | 2.0 | 5.0 | 0.01 | 0.09 | 0.09 | 66 | 1008.4 |
| 20260507005353 | 56 | 229 | 1.0 | 8.0 | 0.02 | 0.09 | 0.09 | 66 | 1008.4 |
| 20260507004354 | 56 | 212 | 1.0 | 5.0 | 0.03 | 0.09 | 0.09 | 66 | 1008.4 |
| 20260507003355 | 56 | 224 | 1.0 | 5.0 | 0.05 | 0.09 | 0.09 | 66 | 1008.4 |
| 20260507002354 | 56 | 224 | 2.0 | 6.0 | 0.05 | 0.09 | 0.09 | 67 | 1008.4 |
| 20260507001853 | 56 | 179 | 2.0 | 6.0 | 0.05 | 0.09 | 0.09 | 67 | 1008.5 |
| 20260507001507 | 56 | 242 | 1.0 | 4.0 | 0.05 | 0.08 | 0.08 | 67 | 1008.5 |
| 20260506235346 | 56 | 210 | 1.0 | 5.0 | 0.05 | 0.07 | 0.07 | 67 | 1008.4 |
| 20260506234349 | 56 | 246 | 1.0 | 4.0 | 0.05 | 0.06 | 0.06 | 68 | 1008.4 |
| 20260506233847 | 56 | 205 | 2.0 | 7.0 | 0.03 | 0.04 | 0.04 | 68 | 1008.4 |
| 20260506232347 | 56 | 207 | 2.0 | 6.0 | 0.04 | 0.04 | 0.04 | 69 | 1008.1 |
| 20260506231348 | 56 | 190 | 2.0 | 8.0 | 0.04 | 0.04 | 0.04 | 69 | 1008.3 |
| 20260506230850 | 56 | 109 | 2.0 | 6.0 | 0.03 | 0.03 | 0.03 | 70 | 1008.4 |
| 20260506225347 | 56 | 194 | 2.0 | 9.0 | 0.02 | 0.02 | 0.02 | 71 | 1008.5 |
| 20260506224347 | 57 | 236 | 1.0 | 5.0 | 0.01 | 0.01 | 0.01 | 72 | 1008.5 |
| 20260506223347 | 57 | 235 | 2.0 | 10.0 | 0.01 | 0.01 | 0.01 | 74 | 1008.5 |
| 20260506222844 | 58 | 188 | 3.0 | 8.0 | 0.00 | 0.00 | 0.00 | 76 | 1008.8 |
| 20260506221340 | 58 | 223 | 2.0 | 8.0 | 0.00 | 0.00 | 0.00 | 78 | 1008.8 |
| 20260506220341 | 59 | 198 | 2.0 | 6.0 | 0.00 | 0.00 | 0.00 | 79 | 1008.9 |
| 20260506215341 | 59 | 222 | 3.0 | 7.0 | 0.00 | 0.00 | 0.00 | 80 | 1008.9 |
| 20260506214341 | 59 | 210 | 2.0 | 4.0 | 0.00 | 0.00 | 0.00 | 80 | 1008.9 |
| 20260506213342 | 59 | 195 | 3.0 | 8.0 | 0.00 | 0.00 | 0.00 | 80 | 1009.0 |
| 20260506212345 | 59 | 225 | 3.0 | 8.0 | 0.00 | 0.00 | 0.00 | 80 | 1009.2 |
| 20260506212340 | 59 | 158 | 2.0 | 7.0 | 0.00 | 0.00 | 0.00 | 80 | 1009.0 |
| 20260506210341 | 60 | 198 | 2.0 | 7.0 | 0.00 | 0.00 | 0.00 | 81 | 1009.3 |
| 20260506205335 | 60 | 200 | 2.0 | 8.0 | 0.00 | 0.00 | 0.00 | 81 | 1009.3 |
| 20260506204838 | 60 | 229 | 2.0 | 9.0 | 0.00 | 0.00 | 0.00 | 81 | 1009.2 |
| 20260506203336 | 60 | 212 | 3.0 | 11.0 | 0.00 | 0.00 | 0.00 | 81 | 1009.3 |
| 20260506202838 | 60 | 217 | 3.0 | 9.0 | 0.00 | 0.00 | 0.00 | 81 | 1009.5 |
| 20260506201335 | 60 | 225 | 2.0 | 6.0 | 0.00 | 0.00 | 0.00 | 81 | 1009.5 |
| 20260506200335 | 60 | 186 | 3.0 | 11.0 | 0.00 | 0.00 | 0.00 | 81 | 1009.7 |
| 20260506195336 | 61 | 242 | 3.0 | 9.0 | 0.00 | 0.00 | 0.00 | 80 | 1009.8 |
| 20260506194336 | 61 | 155 | 3.0 | 11.0 | 0.00 | 0.00 | 0.00 | 80 | 1009.8 |
| 20260506193335 | 61 | 191 | 3.0 | 8.0 | 0.00 | 0.00 | 0.00 | 80 | 1010.0 |
| 20260506192334 | 62 | 242 | 3.0 | 8.0 | 0.00 | 0.00 | 0.00 | 80 | 1010.0 |
| 20260506191333 | 62 | 198 | 2.0 | 6.0 | 0.00 | 0.00 | 0.00 | 79 | 1010.1 |
| 20260506190345 | 62 | 206 | 3.0 | 12.0 | 0.00 | 0.00 | 0.00 | 79 | 1010.0 |
| 20260506185333 | 63 | 210 | 2.0 | 9.0 | 0.00 | 0.00 | 0.00 | 78 | 1010.2 |
| 20260506184333 | 63 | 205 | 3.0 | 9.0 | 0.00 | 0.00 | 0.00 | 79 | 1010.3 |
| 20260506183333 | 62 | 221 | 4.0 | 10.0 | 0.00 | 0.00 | 0.00 | 79 | 1010.5 |
| 20260506182333 | 63 | 192 | 4.0 | 8.0 | 0.00 | 0.00 | 0.00 | 78 | 1010.7 |
| 20260506181835 | 63 | 198 | 3.0 | 8.0 | 0.00 | 0.00 | 0.00 | 77 | 1010.9 |
| 20260506180334 | 64 | 174 | 4.0 | 11.0 | 0.00 | 0.00 | 0.00 | 77 | 1011.0 |
| 20260506175333 | 65 | 207 | 4.0 | 9.0 | 0.00 | 0.00 | 0.00 | 76 | 1011.1 |
| 20260506174333 | 65 | 203 | 4.0 | 12.0 | 0.00 | 0.00 | 0.00 | 76 | 1011.4 |
| 20260506173332 | 65 | 221 | 5.0 | 12.0 | 0.00 | 0.00 | 0.00 | 76 | 1011.3 |
| 20260506172330 | 65 | 110 | 6.0 | 11.0 | 0.00 | 0.00 | 0.00 | 76 | 1011.2 |
| 20260506171332 | 64 | 218 | 5.0 | 11.0 | 0.00 | 0.00 | 0.00 | 77 | 1011.5 |
| 20260506170333 | 63 | 228 | 4.0 | 9.0 | 0.00 | 0.00 | 0.00 | 78 | 1011.5 |
| 20260506165332 | 63 | 239 | 5.0 | 14.0 | 0.00 | 0.00 | 0.00 | 78 | 1011.7 |
| 20260506164332 | 64 | 215 | 4.0 | 9.0 | 0.00 | 0.00 | 0.00 | 77 | 1011.8 |